Погода в Рязани

Хотите узнать прогноз погоды в Рязани? Тогда Вам сюда: Погода в Рязани

Поиск расширенной информации на нашем сайте:

Полезная информация:

Новости сайта



02.01.2020
Опубликован Долгосрочный прогноз погоды по городам России и ближнего зарубежья на январь 2020 года.
Карты: Прогноз на январь и февраль 2020 года, Сравнение прогнозируемой аномалии приземной температуры воздуха на январь 2020 года по разным моделям.




Погода в Рязани - сегодня

Время (UTC), дата Ветер
(°,м/с) 
Видим.   Явления Облачность Т
(°С)
Тd
(°С)
f(%) Тe
(°С)
Pmin
(гПа)
dP
(гПа)
Po
(мм)
O2
(г/м3)
Тmin Tmax R s Состояние
почвы
12 03.03.21 290 (З) 10 км    1/0 верхняя 
[Ci fib]
+2.1 -7.4 49 1014.2  -0.3  746  299           
15 03.03.21 260 (З) 10 км    9/0 средняя 
[Ac trans]
+0.3 -4.5 70 1013.1  -1.2  745  300    +2.6       
18 03.03.21 270 (З) 10 км    9/0 средняя 
[Ac trans]
+0.4 -4.1 72 1011.6  -1.5  744  300           
21 03.03.21 260 (З) 10 км    ясно 
-1.2 -4.5 78 -2  1009.7  -1.9  743  301           
00 04.03.21 250 (З) 10 км    10/0 средняя 
[Ac und]
+0.1 -3.3 78 -2  1007  -2.6  741  299           
03 04.03.21 240 (ЮЗ) 10 км    10/0 средняя 
[Ac und]
-0.1 -1.9 88 -2  1004.1  -2.8  739  298  -1.2      40  равномерный
мокрый или
старый снег
100% 
06 04.03.21 240 (ЮЗ) 4{10}  10 км  {ливн. осадки}  10/10 300 м кучево-дожд. 
[Cb cap]
+1.5 -1.6 80 -1  1001.9  -2.1  737  295           
09 04.03.21 230 (ЮЗ) 4{10}  10 км    9/0 средняя 
[Ac As]
+3.2 -1.6 71 +1  1000.1  -1.6  736  293           
12 04.03.21 240 (ЮЗ) 10 км    10/10 300 м 
[Sc]
+2.1 -1.9 75 +1  999.8  -0.5  735  294           
15 04.03.21 250 (З) 4000 м  слаб. ливневой снег  10/10 300 м кучево-дожд. 
[Cb cap]
+0.9 -1.6 83 999.9  0.1  735  296    +3.2  0.0     
18 04.03.21 тихо ()   4000 м  слаб. снег{ливн. осадки}  10/10 300 м 
[Ns]
-1.5 -1.7 99 -2  1000.3  0.3  736  298           
21 04.03.21 010 (С) 4000 м  слаб. снег  10/10 300 м 
[Ns]
-2 -2.3 98 -4  1000.4  736  299           
00 05.03.21 340 (С) 10 км  {снег}  10/10 300 м 
[Sc]
-3.4 -3.7 98 -3  1002.2  1.6  737  301           
03 05.03.21 310 (СЗ) 10 км    ясно 
-7 -7.4 97 -7  1004.7  2.3  739  306  -7    45  равномерный
сухой снег
100% 
06 05.03.21 310 (СЗ) 4000 м  дымка  ясно 
-5.3 -5.7 97 -5  1006.9  2.2  740  305  -9.7         
09 05.03.21 240 (ЮЗ) 10 км    1/0 средняя 
[Ac lent]
-2.4 -5.6 79 -3  1008.1  1.4  741  302           
12 05.03.21 240 (ЮЗ) 10 км    8/0 средняя 
[Ac lent]
-1 -5.9 69 -3  1009.2  1.2  742  301           
15 05.03.21 270 (З) 10 км  {снег}  3/0 средняя 
[Ac lent]
-3.3 -6.9 76 -4  1011  1.5  743  304    +0.1  0.2     
18 05.03.21 тихо ()   10 км  {снег}  4/0 средняя 
[Ac lent]
-7.5 -8.6 92 -8  1013.3  745  309           
21 05.03.21 190 (Ю) 10 км    3/0 средняя 
[Ac lent]
-10.1 -10.5 97 -10  1015  1.5  746  313           
00 06.03.21 190 (Ю) 10 км    3/0 средняя 
[Ac lent]
-11.2 -11.8 95 -11  1015.6  0.5  746  315           
03 06.03.21 тихо ()   10 км    9/0 средняя 
[Ac trans]
-12.1 -12.8 95 -12  1016  0.3  747  316  -12.8      45  равномерный
сухой снег
100% 
06 06.03.21 330 (СЗ) 10 км  {снег}  9/0 средняя, верхняя 
[Ac As|Ci fib]
-8.5 -9.3 94 -8  1016.3  0.6  747  312           
09 06.03.21 290 (З) 10 км    3/0 средняя, верхняя 
[Ac trans|Ci fib]
-5.3 -8.5 78 -7  1016.6  0.5  747  308           
12 06.03.21 300 (СЗ) 10 км    3/3 600 м 
[Sc diur, vesp]
-3.3 -9.7 61 -4  1015.9  -0.6  747  306           
Время (UTC), дата Ветер
(°,м/с) 
Видим.   Явления Облачность Т
(°С)
Тd
(°С)
f(%) Тe
(°С)
Pmin
(гПа)
dP
(гПа)
Po
(мм)
O2
(г/м3)
Тmin Tmax R s Состояние
почвы

Для получения пояснительной информации подведите курсор к названию столбца.

ПОГОДА в Рязани - архив

Всё, что Вы хотите узнать о погоде в Рязани - удобно и подробно!

Выберите нужную дату (начиная с 1 января 2019* года) и нажмите кнопку "Найти".
Будут отображены архивные сводки погоды по пункту Рязань, начиная с указанной даты.


Отображать данные в формате CSV (для использования в таблицах Excel)


Внимание! Наш архив погоды предназначен исключительно для личного некоммерческого использования в познавательных целях. Если Вам необходимы официальные справки о состоянии погоды (для производственных, юридических, коммерческих и т.п. целей), обращайтесь в органы Росгидромета.

*Примечание: данная дата относится к архиву по метеостанциям СССР (Россия, СНГ, Балтия).
Архив по метеостанциям Зарубежной Европы и Азии (кроме Китая) хранится 10 дней, по другим регионам земного шара (Китай, Африка, Америка, Австралия, Океания) - 1 день.

Рязань - район местоположения метеостанции


Название, широта, долгота, высота метеостанции:
Рязань 54.6°ш. 39.7°д. 158 м над ур. моря [Российская Федерация]

Дополнительная информация

В oтличие oт бoльшинства пoгoдных сайтoв мы публикуем пoдрoбную метеoинфoрмацию в детальнoм прoфессиoнальнoм фoрмате.

Характеристики температуры и влажнoсти вoздуха измеряются на высoте 2 м в тени вдали oт зданий и деревьев.
Скoрoсть ветра измеряется на высoте 10 м (на урoвне рoста челoвека скoрoсть ветра ниже в 1.5-2 раза). Если метеoстанция нахoдится в гoрoде или в лесу, тo скoрoсть ветра занижена на 2-4 м/с пo сравнению с oткрытым местoм. Скoрoсть ветра над акватoриями крупных рек и oзёр, а также на вершинах хoлмoв на 2-5 м/с выше, чем в oбычных услoвиях.
Атмoсфернoе давление в разных тoчках местнoсти мoжет значительнo oтличаться oт давления на метеoстанции, в зависимoсти oт услoвий рельефа (при пoдъёме на 10 м давление пoнижается примернo на 1 мм рт.ст.).